OpenBCM V1.08-5-g2f4a (Linux)

Packet Radio Mailbox

IZ3LSV

[San Dona' di P. JN]

 Login: GUEST





  
I0OJJ  > KEPS     22.08.25 01:45l 316 Lines 15020 Bytes #63 (0) @ AMSAT
BID : ORB25234.1
Read: GUEST
Subj: 2Line Orbital Elements 25234.AMSAT
Path: IZ3LSV<IK6IHL<IK7NXU<HB9ON<DK0WUE<PD0LPM<PI8LAP<K5DAT<VE3CGR<VE3TOK<
      IR0AAB<I0OJJ
Sent: 250822/0025z @:I0OJJ.ITA.EU [Rome] obcm1.08-10-g596e
From: I0OJJ @ I0OJJ.ITA.EU (Gustavo)
To:   KEPS @ AMSAT
X-Info: This message was generated automatically


QST de KM1P

AMSAT Orbital Elements for Amateur Satellites in TLE Format
From Orbital Analysis Auxilliary Summer Office
New England Sci-Tech STEM Education Center
Narragansett RI August 22, 2025
To all radio amateurs


These element sets describe the orbits of various satellites 
in use by the amateur radio community. For details see:
www.amsat.org/keplerian-elements-formats/

A daily update of element sets is available at:
www.amsat.org/tle/daily-bulletin.txt
or without bulletin text:
www.amsat.org/tle/dailytle.txt


AO-07
1 07530U 74089B   25232.94459241 -.00000025  00000-0  13395-3 0  9997
2 07530 101.9967 237.9850 0012163 346.0531  82.2983 12.53690906322896
UO-11
1 14781U 84021B   25232.88590917  .00001157  00000-0  12693-3 0  9995
2 14781  97.7610 197.8560 0009425  96.4189 263.8102 14.89567836212404
AO-27
1 22825U 93061C   25232.73545879  .00000074  00000-0  45419-4 0  9998
2 22825  98.7314 294.6322 0007291 260.0186 100.0174 14.30819100664032
FO-29
1 24278U 96046B   25232.91378284 -.00000035  00000-0 -12537-5 0  9997
2 24278  98.5642 117.2581 0350311 155.0338 206.8210 13.53251721432550
NOAA-15
1 25338U 98030A   25231.77009435  .00000153  00000-0  80310-4 0  9994
2 25338  98.5336 255.1809 0010950 145.7140 214.4750 14.27013376418307
GO-32
1 25397U 98043D   25232.90705691  .00000059  00000-0  45512-4 0  9996
2 25397  98.9771 213.5579 0001744  40.0236 320.1070 14.24330630408586
ISS
1 25544U 98067A   25232.79082775  .00012706  00000-0  22974-3 0  9992
2 25544  51.6357 346.8656 0003381 246.2794 113.7840 15.50060649525187
NO-44
1 26931U 01043C   25232.59693118  .00000098  00000-0  67649-4 0  9998
2 26931  67.0514 301.6354 0006770 276.1142  83.9188 14.31764426247414
SO-50
1 27607U 02058C   25232.70277683  .00000937  00000-0  13299-3 0  9997
2 27607  64.5544 337.8749 0063927 318.6272  41.0000 14.81797708219918
CO-55
1 27844U 03031E   25232.91067114  .00000271  00000-0  13688-3 0  9994
2 27844  98.6780 240.2570 0009226 345.0740  15.0165 14.24044270148938
CO-57
1 27848U 03031J   25232.75244529  .00000233  00000-0  12191-3 0  9993
2 27848  98.6810 240.0516 0009539   3.2753 356.8486 14.23372138148633
RS-22
1 27939U 03042A   25232.92692609  .00001010  00000-0  16726-3 0  9993
2 27939  98.3345  44.1587 0012239 136.4979  28.3458 14.72504250171345
CO-58
1 28895U 05043F   25232.34354622  .00001491  00000-0  24974-3 0  9991
2 28895  98.2593  17.6365 0015655  80.8607 279.4369 14.71227658 57497
CO-65
1 32785U 08021C   25232.88934694  .00004724  00000-0  33660-3 0  9999
2 32785  97.7897 204.6422 0008726 338.0593  22.0258 15.05062549939959
CO-66
1 32791U 08021J   25232.88112566  .00011761  00000-0  54469-3 0  9991
2 32791  97.7327 214.6332 0001061 278.0455  82.0659 15.20268399941479
RS-30
1 32953U 08025A   25232.83304050  .00000012  00000-0  14251-4 0  9994
2 32953  82.5056 182.2494 0017891 247.5408 112.3777 12.43167339782370
NOAA-19
1 33591U 09005A   25232.83565882  .00000078  00000-0  65723-4 0  9996
2 33591  98.9924 297.9293 0014285 155.9400 204.2442 14.13397458852052
SRMSAT
1 37841U 11058D   25232.91264045  .00000388  00000-0  66936-4 0  9996
2 37841  19.9724  76.8237 0011783 140.6014 248.5004 14.11454349715345
ZACUBE-1
1 39417U 13066B   25232.77830642  .00003866  00000-0  33280-3 0  9993
2 39417  97.7858 189.4571 0043939 167.9113 192.3174 14.97222927635715
Delfi-N3xt
1 39428U 13066N   25232.81396104  .00005070  00000-0  50804-3 0  9990
2 39428  97.8300 149.6803 0085132 121.8050 239.1493 14.89107122629825
GOMX-1
1 39430U 13066Q   25232.81658495  .00001349  00000-0  21539-3 0  9995
2 39430  97.6765  87.0326 0131080 321.7714  37.4251 14.67889030625826
LO-74
1 39440U 13066AA  25232.79459717  .00004054  00000-0  40793-3 0  9998
2 39440  97.8519 176.8877 0059809 302.6956  56.8503 14.90442184632192
AO-73
1 39444U 13066AE  25232.86008903  .00006045  00000-0  44357-3 0  9999
2 39444  97.7845 195.1109 0042355 140.6508 219.7807 15.03137628634446
DTUSAT-2
1 40030U 14033W   25232.91717449  .00005764  00000-0  36760-3 0  9991
2 40030  98.0610 208.3008 0009621 163.0607 197.0943 15.09102358607308
EO-80
1 40032U 14033Y   25232.93377636  .00006770  00000-0  42989-3 0  9993
2 40032  98.0493 207.8719 0010418 112.1791 248.0543 15.09180673607283
LILACSAT-2
1 40908U 15049K   25232.88102404  .00010944  00000-0  27234-3 0  9990
2 40908  97.5044 255.0408 0006953 254.5254 105.5224 15.40428095549359
IO-86
1 40931U 15052B   25151.18580175  .00001241  00000-0  78118-4 0  9996
2 40931   6.0006  24.0987 0012733 338.8432  21.1169 14.78805930523159
Horyu-4
1 41340U 16012D   25232.69565840  .00025312  00000-0  61349-3 0  9998
2 41340  30.9972   5.9568 0007319  89.7928 270.3557 15.39810012523908
Lapan A3
1 41603U 16040E   25232.89706361  .00003459  00000-0  12026-3 0  9994
2 41603  97.1398 234.6956 0011355  21.6217 338.5502 15.30308162508842
CAS-2T
1 41847U 16066G   25232.83582717  .00000568  00000-0  90691-4 0  9996
2 41847  98.4162 306.6591 0344697 320.0411  37.5864 14.43660073461446
CAS-4B
1 42759U 17034B   25232.75537246  .00115949  00000-0  75391-3 0  9992
2 42759  43.0018 248.5424 0020574  78.1557 282.1618 15.74552969453930
CAS-4A
1 42761U 17034D   25233.72557231  .00114108  00000-0  66350-3 0  9990
2 42761  43.0049 238.7523 0021161  91.2434 269.0860 15.77070236454110
TechnoSat
1 42829U 17042E   25232.86465547  .00003033  00000-0  23410-3 0  9990
2 42829  97.3987  38.1418 0018236  40.7440 319.5145 15.02146281441573
AO-91
1 43017U 17073E   25232.91774259  .00007238  00000-0  36583-3 0  9999
2 43017  97.5146 101.8722 0167938 280.0665  78.1651 15.05843795420091
S-Net D
1 43186U 18014G   25232.69508821  .00004658  00000-0  27160-3 0  9991
2 43186  97.5540 134.8647 0008400 349.3002  10.8048 15.12436220413274
S-Net B
1 43187U 18014H   25232.70143271  .00004249  00000-0  24820-3 0  9994
2 43187  97.5546 134.8464 0008924 343.5323  16.5616 15.12416326413270
S-Net A
1 43188U 18014J   25232.69522089  .00004612  00000-0  26888-3 0  9991
2 43188  97.5553 135.0000 0008833 344.2455  15.8500 15.12441918413270
S-Net C
1 43189U 18014K   25232.70401008  .00004280  00000-0  24996-3 0  9990
2 43189  97.5569 135.0352 0010076 334.9402  25.1338 15.12413454411824
Ten-Koh
1 43677U 18084G   25232.87275203  .00001970  00000-0  15992-3 0  9992
2 43677  98.0832  47.9918 0007639  36.1238 324.0500 15.00867727371081
PO-101
1 43678U 18084H   25232.84031856  .00002168  00000-0  18599-3 0  9990
2 43678  98.1067  51.7507 0009099  56.7550 303.4542 14.98609434371203
QO-100
1 43700U 18090A   25232.91294969  .00000126  00000-0  00000-0 0  9994
2 43700   0.0141 153.5837 0001038  25.7803 144.5908  1.00273249 24668
MinXSS-2
1 43758U 18099A   25232.75600996  .00015669  00000-0  57987-3 0  9996
2 43758  97.4972 299.1031 0010089 257.6326 102.3784 15.27721089367981
AO-95
1 43770U 18099N   25232.90536125  .00008743  00000-0  42809-3 0  9991
2 43770  97.4865 290.2230 0009151 326.5325  33.5330 15.18376664367529
SNUSat 2
1 43782U 18099AA  25232.59686309  .00006543  00000-0  34835-3 0  9995
2 43782  97.4549 286.0721 0010193 261.8259  98.1817 15.15518189367405
SnugLite
1 43784U 18099AC  25232.65610540  .00008661  00000-0  42042-3 0  9990
2 43784  97.4361 285.8465 0001939 246.6697 113.4333 15.18709100367576
ITASat 1
1 43786U 18099AE  25232.88334817  .00005892  00000-0  33002-3 0  9996
2 43786  97.4517 285.6443 0012748 321.0645  38.9668 15.13727130367396
EAGLET 1
1 43790U 18099AJ  25232.88082795  .00003836  00000-0  24242-3 0  9998
2 43790  97.4713 285.3487 0010420 305.4817  54.5439 15.09582874366978
ESEO
1 43792U 18099AL  25232.64926723  .00001279  00000-0  99707-4 0  9990
2 43792  97.4438 277.4100 0009732 278.2805  81.7317 15.02850566366646
JO-97
1 43803U 18099AX  25232.72944961  .00011652  00000-0  50878-3 0  9997
2 43803  97.4611 291.2079 0006088 244.4329 115.6278 15.22267536367744
Suomi 100
1 43804U 18099AY  25232.73348694  .00008916  00000-0  42157-3 0  9990
2 43804  97.4676 290.2914 0010646 252.5629 107.4442 15.19572643367657
ISAT
1 43879U 18111D   25232.71201697  .00021436  00000-0  68493-3 0  9999
2 43879  97.5894 148.8029 0005768 314.9686  45.1087 15.32464161364731
UWE-4
1 43880U 18111E   25232.69854209  .00015582  00000-0  57505-3 0  9998
2 43880  97.5838 146.7330 0009661 327.1964  32.8673 15.27819350364635
Sparrow
1 43881U 18111F   25232.76290733  .00022289  00000-0  68130-3 0  9991
2 43881  97.6049 152.0269 0005770   9.2214 350.9132 15.33871629364846
Prox-1
1 44339U 19036A   25232.86768965  .00009632  00000-0  11741-2 0  9997
2 44339  23.9976 306.5045 0007229 169.0618 191.0038 14.81259372328743
Taurus 1
1 44530U 19059C   25232.86022118  .00005845  00000-0  10610-2 0  9994
2 44530  98.6135  15.7495 0009839 167.0273 193.1184 14.66589145314538
Duchifat 3
1 44854U 19089C   25232.40931887  .00062324  00000-0  96705-3 0  9993
2 44854  36.9391 256.4987 0006435 187.9261 172.1397 15.52888604314163
TO-108
1 44881U 19093C   25232.89528798  .00000729  00000-0  90030-4 0  9991
2 44881  97.7886 307.0239 0013630   0.4384 359.6841 14.85728009306816
FloripaSat 1
1 44885U 19093G   25232.85087698  .00005028  00000-0  41817-3 0  9995
2 44885  97.8141 320.6239 0008462 327.1565  32.9131 14.99133090307575
RS-44
1 44909U 19096E   25232.79347447  .00000012  00000-0 -22173-5 0  9994
2 44909  82.5242 179.3058 0218298 126.5306 235.6115 12.79742666263922
UPMSat 2
1 46276U 20061E   25232.78559593  .00115142  00000-0  59756-3 0  9998
2 46276  97.2362 310.1281 0002029 207.8090 152.3070 15.80682542276825
